Location: Bernay
(48.6766°N, 2.9386°E)
Time: 15:05:12
(UTC+00:00)

Nadezhda 3 Rocket - Visible Passes

Search period start: 11 April 2026 00:00
Search period end: 21 April 2026 00:00
Orbit: 955 x 999 km, 82.9° (Epoch: 11 April)

Date Brightness Start Highest point End Pass type
(mag) Time Alt. Az. Time Alt. Az. Time Alt. Az.
11 Apr 4.4 19:58:11 10° NNW 20:04:16 63° W 20:10:19 10° S visible
11 Apr 6.8 21:47:26 10° WNW 21:48:22 10° WNW 21:49:20 10° W visible
12 Apr 5.4 20:24:17 10° NNW 20:29:51 37° W 20:35:23 10° SSW visible
13 Apr 4.0 19:04:18 10° N 19:10:28 69° ENE 19:16:35 10° SSE visible
13 Apr 6.2 20:50:46 10° NW 20:55:16 22° W 20:59:44 10° SW visible
14 Apr 4.3 19:30:07 10° NNW 19:36:16 71° W 19:42:22 10° S visible
14 Apr 6.7 21:18:16 10° NW 21:20:30 12° WNW 21:22:43 10° W visible
15 Apr 5.3 19:56:10 10° NNW 20:01:53 41° W 20:07:34 10° SSW visible
16 Apr 6.2 20:22:32 10° NNW 20:27:20 24° W 20:32:06 10° SW visible
17 Apr 6.7 20:49:38 10° NW 20:52:35 14° WNW 20:55:33 10° WSW visible
18 Apr 5.1 19:28:03 10° NNW 19:33:53 47° W 19:39:43 10° SSW visible
19 Apr 6.1 19:54:19 10° NNW 19:59:23 28° W 20:04:25 10° SW visible
20 Apr 6.7 20:21:11 10° NW 20:24:41 16° WNW 20:28:12 10° WSW visible
